Location: Bjelajci
(45.0103°N, 16.1758°E)
Time: 19:53:48
(UTC+00:00)

Resurs 1-4 Rocket - Pass Details

Date: 14 July 2020
Orbit: 800 x 814 km, 98.6° (Epoch: 05 August)

Event Time Altitude Azimuth Distance (km) Brightness Sun altitude
Rises 01:21:56 0° 7° (N) 3,347 6.5 -16.1°
Reaches altitude 10° 01:24:24 10° 0° (N) 2,410 5.4 -15.8°
Maximum altitude 01:29:20 40° 293° (WNW) 1,189 2.9 -15.3°
Enters shadow 01:32:21 21° 236° (WSW) 1,750 3.3 -15.0°
